Location: São Paulo
(23.5507°S, 46.6334°W)
Time: 07:30:51
(UTC-03:00)

Transit 4A - Pass Details

Date: 17 February 2026
Orbit: 864 x 977 km, 66.8° (Epoch: 11 March)

Event Time Altitude Azimuth Distance (km) Brightness Sun altitude
Rises 00:22:39 0° 180° (S) 3,509 11.5 -54.4°
Enters shadow 00:23:45 - 175° (S) 3,187 11.2 -54.4°
Reaches altitude 10° 00:26:18 10° 158° (SSE) 2,545 - -54.4°
Maximum altitude 00:29:41 16° 123° (ESE) 2,153 - -54.4°
Drops below altitude 10° 00:33:02 10° 87° (E) 2,511 - -54.3°
Sets 00:36:34 0° 65° (ENE) 3,436 - -54.2°
